User: anonymous   Login
Location: Unspecified
(0.0000°N, 0.0000°E)
Time: 11:52:24
(UTC+00:00)
Language:

RESURS DK-1 - Orbit

View from above orbital plane
View from above orbital plane
View from above satellite
View from above satellite

Ground track
Ground track

The orbit data is extracted from the following two-line orbital elements,

1 29228U 06021A   16343.18871687  .00000166  00000-0  20060-4 0  9990
2 29228  69.9354 223.9791 0007891 272.3309  87.6948 15.02056373579426
Epoch (UTC): 08 December 2016 04:31:45
Eccentricity: 0.0007891
inclination: 69.9354°
perigee height: 555 km
apogee height: 566 km
right ascension of ascending node: 223.9791°
argument of perigee: 272.3309°
revolutions per day: 15.02056373
mean anomaly at epoch: 87.6948°
orbit number at epoch: 57942

The dashed part of the orbit path shows where the satellite is in the earth's shadow,  

DLR